Temperature
17 17 17 17 17 17 17 17 17 17 17 17 17 17 17 18 18 18 18 18 18 18 18 18 18 18 18 18 18 18 18 18 18 18 18 18 18 18 18 18 18 18 18
17 17 17 17 17 17 17 17 17 17 17 17 17 17 17 17 18 18 18 18 18 18 18 18 18 18 18 18 18 18 18 18 18 18 18 18 18 18 18 18 18 18 18
17 17 17 17 17 17 17 17 17 17 17 17 17 17 17 17 17 18 18 18 18 18 18 18 18 18 18 18 18 18 18 18 18 18 18 18 18 18 18 18 18 18 18
17 17 17 17 17 17 17 17 17 17 17 17 17 17 17 17 17 17 17 18 18 18 18 17 18 18 17 17 17 17 17 18 18 18 18 18 18 18 18 18 18 18 18
17 17 17 17 17 17 17 17 17 17 17 17 17 17 17 17 17 17 17 17 17 17 17 17 17 17 17 17 17 17 17 17 17 18 17 18 18 17 18 17 18 18 18
17 17 17 17 17 17 17 17 17 17 17 17 17 17 17 17 17 17 17 17 17 17 17 17 17 17 17 17 17 17 17 17 17 17 17 17 17 17 17 17 17 18 17
17 17 17 17 17 17 17 17 17 17 17 17 17 17 17 17 17 17 17 17 17 17 17 17 17 17 17 17 17 17 17 17 17 17 17 17 17 17 17 17 17 17 17
18 17 17 17 17 17 17 17 17 17 17 17 17 17 17 17 17 16 16 17 17 17 17 17 17 17 17 17 17 17 17 17 17 17 17 17 17 17 17 17 17 17 17
17 17 17 17 17 17 17 16 16 16 16 16 16 16 16 16 16 16 16 16 16 16 16 16 16 17 16 16 16 16 16 16 16 17 16 16 16 17 17 17 17 17 17
17 17 17 17 17 17 16 16 16 16 16 16 16 16 16 16 16 16 16 16 16 16 16 16 16 16 16 16 16 16 16 16 16 16 16 16 16 16 16 16 16 16 16
17 17 17 17 17 17 16 16 16 16 16 16 16 16 16 16 16 16 16 16 16 16 16 16 16 16 16 16 16 16 16 16 16 16 16 16 16 16 16 16 16 16 16
17 17 17 17 17 16 16 16 16 16 16 16 16 16 16 16 16 16 16 16 16 16 16 16 16 16 16 16 16 16 16 16 16 16 16 16 16 16 16 16 16 16 16
17 17 17 17 17 16 16 16 16 16 16 16 16 16 16 16 16 16 16 16 16 16 16 16 16 16 16 16 16 16 16 16 16 16 15 15 15 16 16 15 15 16 16
18 17 17 17 17 16 16 16 16 16 16 16 16 16 16 16 16 16 16 16 16 16 16 16 16 15 15 15 16 16 16 16 16 15 15 15 15 15 15 15 15 15 15
18 17 17 17 17 16 16 16 16 16 16 16 16 16 16 16 16 15 15 15 15 15 15 15 15 15 15 15 15 15 15 15 15 15 15 15 15 15 15 15 15 15 15
18 17 17 17 17 17 16 16 16 16 16 16 16 16 15 15 15 15 15 15 15 15 15 15 15 15 15 15 15 15 15 15 15 15 15 15 15 15 15 15 15 15 15
18 17 17 17 17 17 16 16 16 16 16 16 16 15 15 15 15 15 15 15 15 15 15 15 15 15 15 15 15 15 15 15 15 15 15 15 15 15 15 15 15 15 15
18 17 17 17 17 16 16 16 16 16 16 16 15 15 15 15 15 15 15 15 15 15 15 15 15 15 15 15 15 15 15 15 15 15 15 15 15 15 15 15 15 15 14
18 18 17 17 17 16 16 16 16 16 15 15 15 15 15 15 15 15 15 15 15 15 15 15 15 15 15 15 15 14 14 14 14 14 15 15 15 14 14 14 14 14 14
18 18 17 17 17 16 16 16 16 16 15 15 15 15 15 15 15 15 15 15 15 15 15 15 15 15 15 15 14 14 14 14 14 14 14 14 14 14 14 14 14 14 14
18 17 17 17 17 17 16 16 16 16 15 15 15 15 15 15 15 15 15 15 15 15 15 15 15 15 14 14 14 14 14 14 14 14 14 14 14 14 14 14 14 14 14
18 17 17 17 17 16 16 16 16 16 15 15 15 15 15 15 15 15 15 15 15 15 15 15 15 14 14 14 14 14 14 13 14 14 14 14 14 14 14 14 14 14 14
18 17 17 17 17 17 16 16 16 16 15 15 15 15 15 15 15 15 15 15 15 15 15 15 14 15 14 14 14 14 14 14 13 13 13 13 13 14 13 13 13 13 13
18 17 17 17 17 17 16 16 16 16 15 15 15 15 15 15 15 15 15 15 15 15 15 14 14 14 14 14 14 14 14 14 14 13 13 13 13 13 13 13 13 13 13
18 17 17 17 17 17 16 16 16 16 16 15 15 15 15 15 15 15 15 15 15 15 15 15 14 14 14 14 14 14 14 14 14 14 13 13 13 13 13 13 13 13 13
17 17 17 17 17 17 16 16 16 16 16 15 15 15 15 15 15 15 15 15 15 15 15 15 15 14 14 14 14 14 14 14 14 14 13 13 13 13 13 13 13 13 13
Wind_Speed
1 1 6 8 8 8 8 8 8 9 10 10 10 10 11 11 12 12 12 12 13 12 12 12 13 13 12 13 13 13 12 12 12 12 12 12 11 12 12 12 11 10 11
3 2 6 8 9 9 8 8 9 10 10 10 10 11 11 12 12 12 12 12 13 12 12 12 12 12 12 12 12 13 12 12 11 12 12 11 11 12 12 12 11 10 11
4 4 6 8 8 9 9 9 9 10 10 10 10 10 11 11 12 12 12 12 13 12 12 12 11 11 12 12 12 12 12 13 13 13 12 9 10 12 12 12 12 11 11
5 5 7 8 8 9 9 9 10 10 10 10 10 10 11 11 11 11 11 12 12 12 12 12 11 11 12 12 12 12 13 13 14 13 10 9 9 12 12 12 11 11 11
5 5 7 8 9 9 9 9 9 9 9 9 10 10 10 10 11 11 11 12 12 12 12 12 12 12 12 12 13 13 13 14 14 13 10 10 9 12 12 12 11 11 11
4 5 7 8 8 8 9 9 9 9 9 9 9 9 10 10 11 11 11 12 12 12 12 12 13 13 13 13 13 13 14 14 13 11 10 10 9 12 12 12 11 11 10
4 5 7 8 8 8 8 8 8 8 8 8 8 9 9 10 11 11 11 11 11 11 11 12 12 13 13 13 13 14 14 15 12 10 9 9 10 12 12 11 11 11 10
6 5 6 8 8 8 7 7 7 7 7 7 8 8 9 9 10 10 10 10 10 10 11 11 11 12 12 12 13 13 13 13 11 10 9 9 11 12 12 11 11 11 11
6 6 4 5 6 7 7 7 7 7 7 6 6 7 8 8 9 9 9 9 9 9 10 11 11 12 12 12 12 13 14 13 10 8 9 8 11 12 11 11 11 11 10
4 5 4 4 4 5 5 5 6 5 5 5 5 6 7 7 8 7 7 8 8 9 9 10 10 11 12 12 12 13 13 11 10 9 7 9 11 11 11 11 11 11 10
4 4 4 4 4 4 4 4 4 4 4 4 5 6 6 6 6 5 6 6 7 7 8 9 9 9 10 11 12 12 11 9 9 8 7 10 11 11 11 11 11 10 10
4 4 3 4 3 3 3 4 3 3 3 4 4 5 5 5 5 5 5 6 6 6 7 7 8 8 7 7 9 10 8 9 7 7 8 10 10 11 11 11 11 10 10
4 4 4 4 4 4 3 3 3 3 3 3 4 5 5 5 4 4 4 5 6 6 5 6 6 6 6 6 7 8 8 8 7 7 8 10 11 11 11 11 11 11 11
5 5 4 4 4 4 4 3 3 3 2 2 3 5 6 4 3 3 3 3 4 4 5 5 5 6 7 8 8 8 8 7 7 7 8 10 10 11 11 11 11 11 11
6 4 4 5 5 4 4 3 3 3 2 3 4 5 6 4 3 3 2 3 4 5 5 5 5 6 6 7 8 8 7 7 7 8 7 9 9 9 10 10 11 11 11
5 5 4 5 5 5 4 3 2 3 3 4 3 5 6 5 4 3 3 3 4 4 5 5 6 6 5 5 6 6 6 7 7 8 8 9 10 10 9 10 11 11 11
5 5 6 6 6 6 4 4 3 4 5 4 3 5 6 6 5 4 3 3 4 6 7 7 6 6 5 5 5 5 5 6 6 6 7 7 7 8 8 9 10 11 11
6 5 5 6 6 6 4 4 4 4 5 4 5 5 6 7 8 6 4 3 5 6 6 4 4 5 5 4 4 4 4 4 5 5 6 6 6 5 6 8 9 10 11
7 6 5 6 6 5 4 4 4 4 4 4 5 5 6 7 8 7 4 4 6 5 4 4 4 4 4 4 3 4 3 3 3 4 4 4 5 5 5 6 8 9 10
6 6 6 5 5 5 4 4 3 3 3 4 4 4 6 7 8 7 5 5 6 5 4 4 5 4 3 3 4 5 4 3 3 3 3 3 4 5 5 6 6 7 9
6 6 5 5 4 4 3 3 3 1 1 2 2 4 5 6 7 6 5 4 5 4 4 4 4 5 3 3 4 4 4 4 3 2 3 3 4 5 6 7 7 7 7
7 6 5 5 5 4 3 3 2 2 1 1 1 3 4 5 6 6 5 4 4 4 4 4 3 3 2 2 3 3 2 3 3 3 3 3 3 5 5 6 7 7 7
7 7 6 5 5 4 4 3 3 3 3 2 2 1 2 4 5 6 5 5 4 4 3 3 3 4 2 2 2 3 3 1 1 3 3 3 3 3 3 5 5 5 6
7 6 7 6 5 4 5 5 5 3 2 2 1 1 1 3 4 5 5 5 4 3 3 3 3 3 3 1 1 1 2 3 3 1 3 3 3 3 2 4 4 5 6
6 7 6 6 5 4 4 5 5 3 2 1 1 2 1 1 3 4 5 5 4 3 3 3 3 3 2 2 2 1 2 2 2 3 1 2 3 3 2 2 3 4 5
5 5 6 6 5 4 5 5 6 5 4 3 2 2 1 1 1 2 4 4 4 3 3 3 2 3 2 2 2 2 2 2 2 3 2 1 1 1 2 2 2 3 4
Wind_Direction
302 13 73 72 71 73 75 76 80 82 81 80 80 80 80 82 81 79 78 82 83 84 84 83 82 84 87 88 90 92 92 93 92 91 92 93 95 100 104 102 101 99 103
158 92 87 81 75 76 76 79 83 82 81 82 82 81 80 82 82 81 81 82 83 83 84 85 85 84 86 87 89 91 91 90 91 90 91 92 93 96 101 101 101 103 106
126 110 97 89 82 80 78 81 83 82 83 84 84 85 83 83 83 81 81 82 83 83 84 84 85 85 85 88 92 93 91 89 88 89 88 84 91 96 99 101 103 103 105
132 123 105 96 89 85 84 84 86 84 84 85 87 88 87 86 85 85 84 83 83 83 82 82 83 86 87 88 91 91 91 92 91 87 78 78 89 98 99 100 103 105 105
127 123 114 105 99 93 90 87 88 86 87 87 90 92 91 90 90 89 87 85 83 82 81 79 78 83 86 88 89 87 89 90 90 84 76 76 86 96 97 98 100 102 104
128 130 127 116 109 104 99 92 90 90 90 93 92 94 92 92 92 91 89 87 85 82 80 79 78 81 82 85 87 86 88 90 87 77 74 78 87 96 97 95 97 100 102
143 139 133 123 117 113 109 103 96 94 94 95 94 95 94 94 96 94 92 89 85 83 81 80 80 82 83 86 87 86 92 93 85 76 75 77 89 94 95 94 94 95 99
148 149 137 127 123 118 115 107 103 99 97 97 97 101 100 98 98 96 95 91 87 85 83 80 79 81 84 87 88 89 94 94 87 81 75 77 90 91 90 90 92 91 93
145 143 139 137 126 120 118 112 104 98 95 97 101 107 107 103 101 101 98 95 91 88 84 80 78 78 81 85 91 92 92 92 80 78 83 79 89 91 90 88 88 89 90
141 146 152 153 139 127 119 118 108 99 94 93 94 98 104 103 105 105 100 99 96 92 88 83 81 79 79 81 86 90 92 88 77 74 76 85 91 93 90 87 87 87 88
142 155 154 152 150 142 131 113 111 99 86 85 84 90 97 96 99 101 102 104 101 96 91 86 82 81 76 75 82 87 85 81 78 74 78 89 90 92 91 89 88 87 87
150 161 153 153 158 149 130 104 91 83 74 73 79 88 102 106 106 99 95 94 96 94 88 85 81 77 73 72 77 82 81 80 74 73 86 93 94 95 94 92 90 87 89
153 150 155 154 147 137 118 112 95 86 78 67 69 89 100 99 99 90 70 63 63 72 67 64 67 71 79 86 88 86 85 79 70 69 82 91 94 93 92 92 89 87 86
137 143 149 146 134 130 120 114 105 90 72 62 75 101 107 105 103 96 70 57 60 67 72 71 76 81 83 86 95 95 89 83 74 69 79 89 91 93 92 89 88 86 85
130 130 129 124 123 117 107 103 104 103 95 90 89 103 112 113 107 95 82 76 68 76 83 83 83 82 83 83 94 97 91 86 81 74 75 85 88 91 93 92 90 88 86
136 134 125 118 119 113 108 108 110 98 93 86 89 106 114 116 113 103 81 78 77 84 90 92 90 87 80 83 84 93 93 92 86 82 74 75 81 87 88 91 91 88 87
142 133 129 122 113 108 106 104 97 89 89 81 91 103 109 112 109 103 90 79 81 90 89 87 83 82 82 78 76 81 88 90 92 85 78 74 75 80 85 88 93 91 89
134 128 130 128 121 116 111 104 91 84 84 81 86 94 97 103 108 104 94 85 89 88 88 85 80 81 73 73 74 70 79 86 87 91 83 78 75 71 76 87 91 93 91
138 132 122 120 123 120 111 99 90 84 78 78 83 87 91 102 109 106 97 94 94 86 79 91 78 91 87 80 82 71 64 74 77 93 81 79 84 83 79 82 88 90 91
138 134 128 122 120 119 104 86 74 63 59 65 77 90 95 105 109 106 100 94 93 85 75 81 83 72 82 84 82 66 50 54 61 71 82 81 92 92 95 86 81 83 85
140 137 133 126 128 124 113 109 101 94 60 51 71 97 107 112 114 110 105 96 92 92 95 95 98 83 67 78 80 57 33 32 44 38 60 77 85 92 90 91 88 82 75
152 150 145 142 142 141 145 144 141 143 133 117 67 84 115 123 124 126 119 116 107 104 94 91 99 98 61 63 99 91 44 14 13 26 34 69 80 85 90 96 96 91 83
160 162 158 156 152 149 143 112 89 68 53 47 53 48 80 124 126 130 131 126 122 120 123 122 120 120 113 42 81 128 131 182 336 5 17 43 62 77 84 94 99 97 92
174 163 154 156 153 154 142 132 134 136 143 187 178 159 82 109 125 136 137 136 133 132 135 145 130 127 126 117 51 62 137 152 141 83 6 20 42 62 78 92 97 101 101
167 160 159 153 152 155 148 147 140 139 159 157 123 112 86 79 118 135 142 140 141 145 150 142 129 127 131 141 141 123 90 76 94 130 122 8 28 26 55 88 101 105 109
159 155 156 152 155 155 146 148 150 153 151 140 137 142 140 95 79 116 139 146 146 150 158 156 150 136 130 125 127 128 139 132 142 129 143 146 95 9 29 53 84 108 118
Height
1530 1529 1528 1526 1525 1524 1523 1522 1522 1521 1520 1520 1520 1519 1519 1519 1518 1518 1518 1517 1517 1517 1517 1517 1516 1516 1516 1517 1517 1517 1518 1518 1519 1520 1520 1521 1521 1521 1522 1522 1523 1523 1524
1531 1529 1528 1527 1526 1525 1524 1523 1522 1522 1521 1521 1520 1520 1520 1520 1519 1519 1519 1519 1518 1518 1518 1518 1517 1517 1517 1518 1518 1519 1519 1520 1520 1521 1521 1522 1522 1523 1523 1523 1524 1524 1525
1531 1530 1529 1528 1527 1526 1525 1524 1523 1523 1522 1521 1521 1521 1521 1521 1520 1520 1520 1520 1519 1519 1519 1518 1518 1518 1518 1519 1519 1520 1520 1521 1521 1522 1522 1523 1523 1524 1524 1525 1525 1525 1526
1532 1531 1529 1528 1527 1526 1526 1525 1524 1524 1523 1523 1522 1522 1522 1522 1521 1521 1521 1521 1521 1520 1520 1519 1518 1518 1518 1520 1521 1521 1522 1522 1523 1523 1524 1524 1524 1525 1525 1526 1526 1526 1527
1532 1531 1530 1529 1528 1527 1527 1526 1525 1525 1524 1524 1524 1523 1523 1523 1523 1522 1522 1522 1522 1521 1521 1520 1519 1518 1519 1521 1522 1523 1523 1524 1524 1524 1525 1525 1526 1526 1527 1527 1528 1528 1528
1533 1532 1531 1530 1529 1528 1528 1527 1527 1526 1526 1525 1525 1525 1524 1524 1524 1523 1523 1523 1523 1523 1522 1522 1521 1521 1522 1523 1523 1524 1525 1525 1525 1526 1526 1527 1527 1528 1528 1528 1528 1529 1529
1534 1533 1532 1532 1530 1529 1529 1528 1528 1527 1527 1527 1526 1526 1526 1525 1525 1525 1524 1524 1524 1524 1524 1524 1524 1524 1524 1524 1525 1525 1526 1526 1527 1527 1528 1528 1529 1529 1529 1529 1529 1530 1530
1535 1534 1534 1533 1532 1531 1530 1529 1529 1529 1528 1528 1528 1527 1527 1527 1526 1526 1525 1525 1525 1525 1525 1525 1526 1526 1526 1526 1527 1527 1528 1528 1528 1528 1529 1529 1530 1530 1530 1530 1530 1531 1531
1536 1535 1535 1534 1533 1532 1531 1531 1530 1530 1530 1529 1529 1529 1528 1528 1528 1528 1527 1527 1527 1527 1527 1527 1527 1527 1528 1528 1528 1528 1529 1529 1529 1530 1530 1530 1531 1531 1531 1531 1531 1531 1532
1536 1536 1535 1535 1534 1533 1533 1532 1532 1531 1531 1531 1530 1530 1530 1529 1529 1529 1529 1529 1529 1529 1529 1529 1529 1529 1529 1530 1530 1530 1530 1531 1531 1531 1531 1531 1532 1532 1532 1532 1532 1532 1532
1537 1536 1536 1535 1535 1535 1534 1533 1533 1533 1532 1532 1531 1531 1531 1531 1531 1531 1531 1530 1530 1530 1530 1530 1530 1531 1531 1531 1531 1532 1531 1532 1532 1532 1532 1533 1533 1533 1533 1533 1533 1533 1533
1537 1537 1537 1536 1536 1535 1535 1534 1534 1534 1533 1533 1533 1533 1533 1532 1532 1532 1532 1532 1532 1532 1532 1532 1532 1532 1532 1533 1533 1533 1533 1533 1533 1533 1534 1534 1534 1534 1534 1534 1534 1534 1534
1537 1537 1537 1536 1536 1536 1536 1536 1535 1535 1535 1534 1534 1534 1534 1534 1534 1534 1533 1533 1533 1534 1534 1534 1534 1534 1534 1534 1534 1534 1534 1534 1535 1535 1535 1535 1535 1535 1536 1535 1535 1535 1535
1537 1537 1537 1537 1537 1537 1537 1537 1536 1536 1536 1536 1535 1535 1535 1535 1535 1535 1535 1535 1535 1535 1535 1535 1535 1535 1535 1535 1536 1536 1536 1536 1536 1536 1536 1537 1537 1537 1537 1536 1536 1536 1536
1537 1537 1538 1538 1538 1538 1538 1538 1537 1537 1537 1537 1537 1537 1536 1536 1536 1536 1536 1536 1536 1537 1536 1537 1537 1537 1536 1537 1537 1537 1538 1538 1538 1538 1538 1538 1538 1538 1538 1538 1537 1537 1537
1537 1538 1538 1538 1538 1538 1538 1538 1538 1538 1538 1538 1538 1538 1538 1538 1537 1537 1537 1538 1538 1538 1538 1538 1538 1538 1538 1538 1538 1539 1539 1539 1540 1540 1540 1539 1539 1539 1539 1539 1538 1538 1537
1537 1538 1538 1538 1539 1539 1539 1539 1539 1539 1539 1539 1539 1539 1539 1539 1539 1539 1539 1539 1539 1539 1539 1539 1539 1539 1539 1540 1540 1540 1540 1541 1541 1541 1541 1541 1541 1540 1540 1540 1539 1539 1538
1537 1538 1538 1539 1539 1539 1540 1540 1540 1540 1540 1540 1540 1540 1540 1540 1539 1540 1539 1539 1540 1540 1540 1540 1540 1540 1540 1541 1541 1541 1541 1542 1542 1542 1542 1542 1541 1541 1541 1541 1540 1540 1540
1537 1538 1538 1539 1539 1540 1540 1540 1541 1541 1541 1541 1540 1540 1540 1540 1540 1540 1540 1540 1541 1541 1541 1541 1541 1542 1542 1542 1542 1542 1543 1543 1543 1543 1543 1543 1542 1542 1542 1542 1542 1541 1541
1537 1538 1538 1539 1539 1540 1540 1541 1541 1541 1541 1541 1541 1541 1541 1541 1541 1541 1541 1541 1542 1542 1542 1542 1543 1543 1543 1543 1543 1544 1544 1544 1544 1544 1544 1543 1543 1542 1542 1543 1543 1542 1542
1537 1538 1538 1538 1539 1540 1540 1540 1541 1541 1542 1542 1542 1542 1542 1542 1542 1542 1542 1542 1542 1543 1543 1543 1544 1544 1544 1544 1544 1544 1545 1545 1545 1545 1545 1544 1544 1543 1543 1543 1543 1543 1543
1536 1537 1538 1538 1539 1539 1540 1540 1541 1541 1542 1542 1543 1543 1543 1543 1543 1543 1543 1543 1543 1543 1544 1544 1544 1545 1545 1545 1545 1545 1546 1547 1546 1546 1545 1545 1544 1545 1545 1544 1544 1544 1544
1534 1535 1536 1537 1538 1539 1540 1540 1541 1542 1542 1543 1543 1543 1543 1544 1544 1543 1543 1544 1544 1544 1544 1545 1545 1546 1546 1546 1546 1546 1546 1546 1547 1547 1546 1545 1545 1545 1545 1545 1545 1545 1545
1533 1534 1536 1537 1538 1539 1539 1540 1540 1541 1542 1542 1543 1543 1544 1544 1544 1544 1544 1544 1545 1545 1545 1546 1546 1546 1546 1546 1546 1546 1547 1546 1546 1547 1547 1546 1546 1546 1546 1546 1546 1546 1546
1532 1533 1535 1536 1537 1538 1539 1540 1540 1541 1542 1542 1543 1544 1544 1544 1545 1545 1545 1545 1545 1545 1546 1546 1546 1546 1547 1547 1546 1546 1546 1546 1546 1546 1546 1547 1547 1547 1547 1547 1547 1547 1547
1531 1532 1534 1535 1536 1537 1538 1539 1540 1541 1541 1542 1543 1543 1544 1544 1545 1545 1545 1545 1545 1546 1546 1546 1546 1546 1547 1546 1546 1546 1546 1546 1546 1546 1546 1547 1547 1548 1548 1548 1548 1548 1548